Regional Weather Roundup
Issued by NWS

Home | Current Version | Previous Version | Text Only | Print | Product List | Glossary On
Versions: 1 2 3 4 5 6 7 8 9 10 11 12 13 14 15 16 17 18 19 20 21 22 23 24 25 26 27 28 29 30 31 32 33 34 35 36 37 38 39 40 41 42 43 44 45 46 47 48 49 50
000
ASUS45 KBOU 250207
RWRCO

WEATHER ROUNDUP FOR COLORADO
NATIONAL WEATHER SERVICE DENVER/BOULDER CO
800 PM MDT WED MAY 24 2017

NOTE: "FAIR" INDICATES FEW OR NO CLOUDS BELOW 12000 FEET WITH NO
SIGNIFICANT WEATHER AND/OR OBSTRUCTIONS TO VISIBILITY.

COZ001>005-013-030-031-250300-
...NORTHWEST COLORADO...

CITY           SKY/WX    TMP DP  RH WIND       PRES   REMARKS
CRAIG          CLOUDY    67  37  33 SW9       29.66F
HAYDEN         MOCLDY    66  30  26 SW29G44   29.68F
MEEKER         FAIR      73  27  18 SW6       29.67F
RABBIT EARS PA CLOUDY    46  30  53 W7G16     29.96F
STEAMBOAT SPGS MOCLDY    65  36  33 S5        29.71F
WALDEN           N/A     59  28  31 SW14G20   29.80F
$$

COZ006>008-011-250300-
...WEST CENTRAL VALLEYS...

CITY           SKY/WX    TMP DP  RH WIND       PRES   REMARKS
GRAND JUNCTION FAIR      82  28  14 W21G28    29.59S
MONTROSE       FAIR      76  27  16 SW9       29.70S
EAGLE          FAIR      72  29  20 W10       29.74F
RIFLE          FAIR      79  24  13 W17       29.62F
DELTA          FAIR      84  23  10 W12       29.64S
NUCLA          FAIR      77  23  13 SW13      29.75F
$$

COZ017>023-064>068-250300-
...SOUTHWEST COLORADO...

CITY           SKY/WX    TMP DP  RH WIND       PRES   REMARKS
DURANGO        FAIR      73  20  13 W13       29.82F
CORTEZ         FAIR      76  26  15 SW7       29.76F
PAGOSA SPRINGS FAIR      69  18  14 W7        29.91S
TELLURIDE      FAIR      64  18  17 SW8G21    29.99F
WOLF CREEK PAS FAIR      45  21  39 SW17G25   30.22F
$$

COZ009-010-012-014-032>034-037-058>063-250300-
...CENTRAL COLORADO...

CITY           SKY/WX    TMP DP  RH WIND       PRES   REMARKS
ASPEN          FAIR      65  27  23 CALM      29.81F
BUENA VISTA    FAIR      64  24  22 W6        29.85F
COPPER MTN     FAIR      48  18  29 W26G33    30.10S
BERTHOUD PASS  FAIR      39  30  70 W25G36    30.11R
COTTONWOOD PAS FAIR      61  19  20 W12G18    29.98S
GUNNISON       FAIR      66  29  24 W6        29.84F
KREMMLING      MOCLDY    66  32  28 W3        29.78S
LEADVILLE      MOCLDY    54  22  28 SW3       29.96F
MONARCH PASS   MOCLDY    45  27  49 W26G37    30.23S
SALIDA         FAIR      69  26  20 W9G16     29.90S
SUNLIGHT       FAIR      45  25  45 SW14G30   30.03F
WILKERSON PASS FAIR      46  23  39 SW16G25   30.08F
$$

COZ069>075-250300-
...SAN LUIS VALLEY/SANGRE DE CRISTO MOUNTAINS...

CITY           SKY/WX    TMP DP  RH WIND       PRES   REMARKS
ALAMOSA        MOCLDY    67  27  22 W17       29.84R
DEL NORTE      FAIR      69  23  17 W16G22    29.88R
LA VETA PASS   FAIR      54  27  35 MISG      30.12S
SAGUACHE       FAIR      68  28  22 NW12      29.86S
$$

COZ035-036-038>040-250300-
...NORTHERN COLORADO FRONT RANGE...

CITY           SKY/WX    TMP DP  RH WIND       PRES   REMARKS
DENVER INTL AP FAIR      77  34  21 NW10      29.61R
DMNS CITY PARK   N/A     77  21  12 W7G14     29.60S
AURORA         PTCLDY    75  29  18 W10       29.63S
FRONT RANGE AP PTCLDY    77  46  33 CALM      29.63R
ERIE MUNI ARPT FAIR      72  38  28 NW3       29.59S
BOULDER MUN AP FAIR      73  32  21 CALM      29.59S
CENTENNIAL     FAIR      76  26  15 W12       29.65S
BROOMFIELD     PTCLDY    75  34  22 NW9       29.63S
FORT COLLINS   FAIR      78  40  25 CALM      29.57F
LONGMONT       FAIR      77  35  21 SW7       29.60S
$$

COZ041-046-047-076>085-087-088-250300-
...PIKES PEAK/PALMER DIVIDE AND SOUTHERN FOOTHILLS...

CITY           SKY/WX    TMP DP  RH WIND       PRES   REMARKS
COLO. SPRINGS  FAIR      76  27  16 NW9       29.70S
A. F. ACADEMY  FAIR      71  28  19 N3        29.71S
SCHRIEVER AFB  FAIR      69  37  31 SE14G21   29.70S
CHEYENNE MTN   FAIR      69  23  17 SW8       29.70S
ELLICOTT       FAIR     N/A N/A N/A SE12      29.69R
FALCON         FAIR      67  38  35 S3        29.76S
FORT CARSON    FAIR      75  25  15 W10       29.66R
LIMON          FAIR      68  42  38 SE13      29.65R
MONUMENT HILL  FAIR      63  34  34 W6        29.77S
CANON CITY     NOT AVBL
WALSENBURG     FAIR      68  39  34 W10       29.69S
TRINIDAD       FAIR      71  38  29 W9        29.67R
$$

COZ042>045-048>051-090-091-250300-
...NORTHEAST COLORADO...

CITY           SKY/WX    TMP DP  RH WIND       PRES   REMARKS
GREELEY ARPT   FAIR      73  48  41 S8        29.55S
AKRON          FAIR      71  45  39 S6        29.56F
BURLINGTON     FAIR      67  47  48 S13       29.60S
WRAY           FAIR      72  43  35 S12       29.53S
YUMA           FAIR      70  45  40 S13       29.54S
STERLING       FAIR      68  50  52 SW10      29.49S
HOLYOKE        NOT AVBL
FORT MORGAN    FAIR      74  41  29 S5        29.55S
$$

COZ086-089-092>099-250300-
...SOUTHEAST COLORADO...

CITY           SKY/WX    TMP DP  RH WIND       PRES   REMARKS
PUEBLO         FAIR      81  30  15 W14       29.57R
LA JUNTA       FAIR      74  48  39 SE9       29.55F
LAMAR          FAIR      71  47  42 SE10      29.55S
SPRINGFIELD      N/A     67  44  43 S14       29.63S
$$



USA.gov is the U.S. government's official web portal to all federal, state and local government web resources and services.